Regional Weather Roundup
Issued by NWS

Home | Current Version | Previous Version | Graphics & Text | Print | Product List | Glossary On
Versions: 1 2 3 4 5 6 7 8 9 10 11 12 13 14 15 16 17 18 19 20 21 22 23 24 25 26 27 28 29 30 31 32 33 34 35 36 37 38 39 40 41 42 43 44 45 46 47 48 49 50
000
ASUS43 KLSX 022259
RWRMO

WEATHER SUMMARY FOR MISSOURI
NATIONAL WEATHER SERVICE SPRINGFIELD MO
600 PM CDT THU JUL 02 2015

NOTE: "FAIR" INDICATES FEW OR NO CLOUDS BELOW 12,000 FEET WITH NO
       SIGNIFICANT WEATHER AND/OR OBSTRUCTIONS TO VISIBILITY.
       CURRENT SKY AND/OR WEATHER CONDITIONS ARE NOT AVAILABLE FOR
       CHILLICOTHE AND FARMINGTON.

MOZ001>031-035>038-043-044-053-054-030000-
...NORTHERN AND WESTERN MISSOURI...

CITY           SKY/WX    TMP DP  RH WIND       PRES   REMARKS
KANSAS CTY INT LGT RAIN  70  68  93 E9        29.93F FOG
KANSAS C DTWN  CLOUDY    72  67  84 E9        29.91F
LEE`S SUMMIT   CLOUDY    72  67  84 NE5       29.93F
ST JOSEPH      LGT RAIN  69  67  93 SE7       29.93F FOG
CHILLICOTHE      N/A     74  65  73 CALM      29.94S
KIRKSVILLE     CLOUDY    69  59  70 NE8       29.96S

$$
MOZ066>068-077>081-088>096-101>105-030000-
...SOUTHWEST MISSOURI...

CITY           SKY/WX    TMP DP  RH WIND       PRES   REMARKS
SPRINGFIELD    CLOUDY    79  72  79 N12       29.89R
JOPLIN         PTSUNNY   79  72  79 N9        29.90R

$$
MOZ032>034-039>042-045>050-055>058-069>072-030000-
...CENTRAL MISSOURI...

CITY           SKY/WX    TMP DP  RH WIND       PRES   REMARKS
COLUMBIA       CLOUDY    74  65  73 NE9       29.91F
JEFFERSON CITY CLOUDY    75  66  73 NE10      29.88F
ROLLA          CLOUDY    72  67  84 N7        29.89F
SEDALIA        CLOUDY    74  67  78 NE9       29.91F
OSAGE BEACH    CLOUDY    73  66  78 NE7       29.89F

$$
MOZ051-052-059>065-030000-
...EAST CENTRAL MISSOURI...

CITY           SKY/WX    TMP DP  RH WIND       PRES   REMARKS
ST LOUIS INTL  CLOUDY    77  64  64 N10       29.89S
SPIRIT OF STL  CLOUDY    76  66  71 N6        29.88S
ST CHARLES     CLOUDY    74  65  73 N9        29.88S

$$
MOZ072>076-082>087-097>100-106>115-030000-
...SOUTH CENTRAL AND SOUTHEAST MISSOURI...

CITY           SKY/WX    TMP DP  RH WIND       PRES   REMARKS
CAPE GIRARDEAU MOSUNNY   82  71  69 NW6       29.82F
FARMINGTON     CLOUDY    72  68  88 N6        29.92S
POPLAR BLUFF   CLOUDY    81  72  74 N5        29.81F
WEST PLAINS    PTSUNNY   83  73  72 N5        29.87S

$$


USA.gov is the U.S. government's official web portal to all federal, state and local government web resources and services.